SV2RCS-13 Weather Reports


Display with metric or nautical units.
time (UTC)temp
F
wind
direction
speed
MPH
gust
MPH
rain 1hr
in
rain 24hr
in
rain mn
in
humidity
%
barometer
mb
20260508015708 57 0.0 0.0 0.00 0.00 0.00 64 1016.1
20260508014705 57 0.0 0.0 0.00 0.00 0.00 64 1016.1
20260508013703 57 0.0 0.0 0.00 0.00 0.00 65 1016.1
20260508012706 57 0.0 0.0 0.00 0.00 0.00 64 1016.1
20260508011702 58 0.0 0.0 0.00 0.00 0.00 64 1016.1
20260508010706 58 0.0 0.0 0.00 0.00 0.00 64 1016.1
20260508005704 58 0.0 0.0 0.00 0.00 0.00 64 1016.3
20260508004704 58 0.0 0.0 0.00 0.00 0.00 63 1016.3
20260508003703 58 0.0 0.0 0.00 0.00 0.00 63 1016.4
20260508002702 58 0.0 0.0 0.00 0.00 0.00 63 1016.3
20260508001702 58 0.0 0.0 0.00 0.00 0.00 63 1016.6
20260508000703 58 0.0 0.0 0.00 0.00 0.00 63 1016.7
20260507235703 58 0.0 0.0 0.00 0.00 0.00 63 1016.8
20260507234702 57 0.0 0.0 0.00 0.00 0.00 64 1016.9
20260507233702 57 0.0 0.0 0.00 0.00 0.00 63 1017.0
20260507232706 57 0.0 0.0 0.00 0.00 0.00 62 1017.3
20260507231706 57 0.0 0.0 0.00 0.00 0.00 61 1017.4
20260507230702 57 0.0 0.0 0.00 0.00 0.00 61 1017.3
20260507225703 57 0.0 0.0 0.00 0.00 0.00 61 1017.4
20260507224703 57 0.0 0.0 0.00 0.00 0.00 62 1017.5
20260507223702 57 0.0 0.0 0.00 0.00 0.00 62 1017.5
20260507222703 57 0.0 0.0 0.00 0.00 0.00 62 1017.7
20260507221702 57 0.0 0.0 0.00 0.00 0.00 62 1017.6
20260507220702 57 0.0 0.0 0.00 0.00 0.00 61 1017.8
20260507215702 57 0.0 0.0 0.00 0.00 0.00 61 1017.7
20260507214711 57 0.0 0.0 0.00 0.00 0.00 61 1017.8
20260507213703 57 0.0 0.0 0.00 0.00 0.00 60 1017.8
20260507212703 58 0.0 0.0 0.00 0.00 0.00 61 1017.7
20260507211703 58 0.0 0.0 0.00 0.00 0.00 60 1017.8
20260507210703 58 0.0 0.0 0.00 0.00 0.00 60 1017.9
20260507205703 58 0.0 0.0 0.00 0.00 0.00 59 1017.9
20260507204703 58 0.0 0.0 0.00 0.00 0.00 59 1017.7
20260507203703 58 0.0 0.0 0.00 0.00 0.00 59 1017.8
20260507202703 58 0.0 0.0 0.00 0.00 0.00 59 1017.9
20260507201703 58 0.0 0.0 0.00 0.00 0.00 59 1017.9
20260507200703 58 0.0 0.0 0.00 0.00 0.00 59 1017.8
20260507195702 58 0.0 0.0 0.00 0.00 0.00 57 1017.9
20260507194702 58 0.0 0.0 0.00 0.00 0.00 57 1017.7
20260507193703 59 0.0 0.0 0.00 0.00 0.00 56 1017.7
20260507192702 59 0.0 0.0 0.00 0.00 0.00 57 1017.5
20260507191703 59 0.0 0.0 0.00 0.00 0.00 59 1017.5
20260507190703 59 0.0 0.0 0.00 0.00 0.00 59 1017.4
20260507185704 59 0.0 0.0 0.00 0.00 0.00 59 1017.3
20260507184703 60 0.0 0.0 0.00 0.00 0.00 60 1017.2
20260507183703 60 0.0 0.0 0.00 0.00 0.00 60 1017.0
20260507182702 60 0.0 0.0 0.00 0.00 0.00 60 1017.0
20260507181703 60 0.0 0.0 0.00 0.00 0.00 59 1017.0
20260507180703 60 0.0 0.0 0.00 0.00 0.00 59 1017.0
20260507175702 60 0.0 0.0 0.00 0.00 0.00 59 1016.9
20260507174702 61 0.0 0.0 0.00 0.00 0.00 59 1016.6
20260507173703 61 0.0 0.0 0.00 0.00 0.00 59 1016.6
20260507172703 62 0.0 0.0 0.00 0.00 0.00 60 1016.3
20260507171702 62 0.0 0.0 0.00 0.00 0.00 60 1016.3
20260507170703 62 0.0 0.0 0.00 0.00 0.00 60 1016.3
20260507165703 63 0.0 0.0 0.00 0.00 0.00 58 1016.2
20260507164702 63 0.0 0.0 0.00 0.00 0.00 55 1016.2
20260507163703 63 0.0 0.0 0.00 0.00 0.00 53 1016.0
20260507162703 64 0.0 0.0 0.00 0.00 0.00 53 1016.0
20260507161703 64 0.0 0.0 0.00 0.00 0.00 55 1016.0
20260507160703 64 0.0 0.0 0.00 0.00 0.00 56 1016.2
20260507155703 64 0.0 0.0 0.00 0.00 0.00 57 1016.1
20260507154703 64 0.0 0.0 0.00 0.00 0.00 57 1016.0
20260507153702 64 0.0 0.0 0.00 0.00 0.00 58 1016.2
20260507152702 64 0.0 0.0 0.00 0.00 0.00 55 1016.2
20260507151703 64 0.0 0.0 0.00 0.00 0.00 58 1016.2
20260507150702 64 0.0 0.0 0.00 0.00 0.00 55 1016.5
20260507145702 65 0.0 0.0 0.00 0.00 0.00 54 1016.5
20260507144703 64 0.0 0.0 0.00 0.00 0.00 54 1016.5
20260507143703 64 0.0 0.0 0.00 0.00 0.00 54 1016.3
20260507142705 65 0.0 0.0 0.00 0.00 0.00 52 1016.4
20260507141702 64 0.0 0.0 0.00 0.00 0.00 52 1016.4
20260507140702 65 0.0 0.0 0.00 0.00 0.00 53 1016.2
20260507135701 64 0.0 0.0 0.00 0.00 0.00 54 1016.2
20260507134703 64 0.0 0.0 0.00 0.00 0.00 52 1016.3
20260507133702 65 0.0 0.0 0.00 0.00 0.00 47 1016.1
20260507132702 65 0.0 0.0 0.00 0.00 0.00 47 1016.1
20260507131703 65 0.0 0.0 0.00 0.00 0.00 47 1016.1
20260507130703 65 0.0 0.0 0.00 0.00 0.00 45 1016.2
20260507125705 66 0.0 0.0 0.00 0.00 0.00 44 1016.3
20260507124702 66 0.0 0.0 0.00 0.00 0.00 43 1016.3
20260507123702 65 0.0 0.0 0.00 0.00 0.00 41 1016.3
20260507122702 66 0.0 0.0 0.00 0.00 0.00 40 1016.5
20260507121702 66 0.0 0.0 0.00 0.00 0.00 44 1016.8
20260507120702 65 0.0 0.0 0.00 0.00 0.00 46 1017.0
20260507115702 65 0.0 0.0 0.00 0.00 0.00 49 1017.0
20260507114703 65 0.0 0.0 0.00 0.00 0.00 51 1017.1
20260507113703 64 0.0 0.0 0.00 0.00 0.00 55 1017.1
20260507112702 64 0.0 0.0 0.00 0.00 0.00 55 1017.5
20260507111703 63 0.0 0.0 0.00 0.00 0.00 58 1017.5
20260507110702 63 0.0 0.0 0.00 0.00 0.00 61 1017.3
20260507105703 63 0.0 0.0 0.00 0.00 0.00 57 1017.9
20260507104702 64 0.0 0.0 0.00 0.00 0.00 53 1017.9
20260507103702 65 0.0 0.0 0.00 0.00 0.00 49 1017.7
20260507102702 65 0.0 0.0 0.00 0.00 0.00 48 1017.7
20260507101703 64 0.0 0.0 0.00 0.00 0.00 49 1017.8
20260507100702 64 0.0 0.0 0.00 0.00 0.00 50 1017.8
20260507095702 64 0.0 0.0 0.00 0.00 0.00 51 1017.8
20260507094703 63 0.0 0.0 0.00 0.00 0.00 54 1017.8
20260507093702 63 0.0 0.0 0.00 0.00 0.00 54 1017.6
20260507092701 64 0.0 0.0 0.00 0.00 0.00 53 1017.9
20260507091703 63 0.0 0.0 0.00 0.00 0.00 52 1017.8
20260507090702 63 0.0 0.0 0.00 0.00 0.00 51 1017.8
20260507085702 63 0.0 0.0 0.00 0.00 0.00 49 1017.7
20260507084703 64 0.0 0.0 0.00 0.00 0.00 46 1017.4
20260507083704 64 0.0 0.0 0.00 0.00 0.00 45 1017.1
20260507082702 65 0.0 0.0 0.00 0.00 0.00 44 1017.0
20260507081702 65 0.0 0.0 0.00 0.00 0.00 43 1016.9
20260507080702 65 0.0 0.0 0.00 0.00 0.00 40 1016.8
20260507075702 66 0.0 0.0 0.00 0.00 0.00 39 1016.5
20260507074702 65 0.0 0.0 0.00 0.00 0.00 39 1016.4
20260507073702 66 0.0 0.0 0.00 0.00 0.00 38 1016.2
20260507072702 66 0.0 0.0 0.00 0.00 0.00 38 1015.9
20260507071702 65 0.0 0.0 0.00 0.00 0.00 39 1015.9
20260507070702 64 0.0 0.0 0.00 0.00 0.00 39 1016.0
20260507065702 64 0.0 0.0 0.00 0.00 0.00 39 1016.2
20260507064702 64 0.0 0.0 0.00 0.00 0.00 40 1016.1
20260507063702 64 0.0 0.0 0.00 0.00 0.00 41 1016.1
20260507062707 64 0.0 0.0 0.00 0.00 0.00 40 1016.0
20260507061702 64 0.0 0.0 0.00 0.00 0.00 43 1016.0
20260507060702 63 0.0 0.0 0.00 0.00 0.00 44 1016.2
20260507055702 63 0.0 0.0 0.00 0.00 0.00 43 1015.9
20260507054702 63 0.0 0.0 0.00 0.00 0.00 44 1015.8
20260507053703 63 0.0 0.0 0.00 0.00 0.00 48 1015.7
20260507052702 62 0.0 0.0 0.00 0.00 0.00 47 1015.6
20260507051706 62 0.0 0.0 0.00 0.00 0.00 49 1015.6
20260507050702 62 0.0 0.0 0.00 0.00 0.00 49 1015.5
20260507045702 62 0.0 0.0 0.00 0.00 0.00 46 1015.3
20260507044702 62 0.0 0.0 0.00 0.00 0.00 47 1015.4
20260507043702 62 0.0 0.0 0.00 0.00 0.00 46 1015.1
20260507042702 62 0.0 0.0 0.00 0.00 0.00 45 1015.3
20260507041702 61 0.0 0.0 0.00 0.00 0.00 44 1015.4
20260507040657 59 0.0 0.0 0.00 0.00 0.00 47 1015.6
20260507035701 59 0.0 0.0 0.00 0.00 0.00 46 1015.5
20260507034702 59 0.0 0.0 0.00 0.00 0.00 46 1015.4
20260507033702 59 0.0 0.0 0.00 0.00 0.00 45 1015.5
20260507032702 58 0.0 0.0 0.00 0.00 0.00 45 1015.5
20260507031702 59 0.0 0.0 0.00 0.00 0.00 44 1015.3
20260507030703 59 0.0 0.0 0.00 0.00 0.00 43 1015.4
20260507025702 59 0.0 0.0 0.00 0.00 0.00 43 1015.4
20260507024705 59 0.0 0.0 0.00 0.00 0.00 42 1015.4
20260507023702 59 0.0 0.0 0.00 0.00 0.00 42 1015.3
20260507022702 60 0.0 0.0 0.00 0.00 0.00 41 1015.0
20260507021702 60 0.0 0.0 0.00 0.00 0.00 41 1015.0
20260507020703 60 0.0 0.0 0.00 0.00 0.00 42 1015.0